This is the latest recevied weather packets stored in our database for station/object W5ADC. If no packets are shown the sender has not sent any weather packets the latest 10 day(s).
| Time | Temp. | Humidity | Pressure | Rain* | Wind** | Luminosity | Snow |
|---|---|---|---|---|---|---|---|
| 1778011605 | 30.56° C | 63% | 1000.7 hPa | 0 mm | - | 627 W/m² | - |
| 1778011302 | 30° C | 64% | 1000.8 hPa | 0 mm | - | 606 W/m² | - |
| 1778010998 | 30° C | 63% | 1001 hPa | 0 mm | - | 683 W/m² | - |
| 1778010695 | 30° C | 64% | 1001 hPa | 0 mm | - | 712 W/m² | - |
| 1778010393 | 30° C | 64% | 1001.1 hPa | 0 mm | - | 750 W/m² | - |
| 1778010088 | 30° C | 65% | 1000.8 hPa | 0 mm | - | 725 W/m² | - |
| 1778009785 | 29.44° C | 65% | 1001.1 hPa | 0 mm | - | 685 W/m² | - |
| 1778009482 | 29.44° C | 66% | 1001.1 hPa | 0 mm | - | 670 W/m² | - |
| 1778009181 | 29.44° C | 66% | 1001 hPa | 0 mm | - | 538 W/m² | - |
| 1778008878 | 29.44° C | 66% | 1000.8 hPa | 0 mm | - | 700 W/m² | - |
| 1778008576 | 28.89° C | 67% | 1001.1 hPa | 0 mm | - | 703 W/m² | - |
| 1778008274 | 28.89° C | 67% | 1001 hPa | 0 mm | - | 824 W/m² | - |
| 1778007969 | 28.89° C | 67% | 1001 hPa | 0 mm | - | 536 W/m² | - |
| 1778007664 | 29.44° C | 66% | 1001.1 hPa | 0 mm | - | 598 W/m² | - |
| 1778007361 | 28.33° C | 69% | 1001.1 hPa | 0 mm | - | 782 W/m² | - |
| 1778007057 | 28.33° C | 69% | 1001.2 hPa | 0 mm | - | 585 W/m² | - |
| 1778006754 | 27.78° C | 70% | 1001.2 hPa | 0 mm | - | 445 W/m² | - |
| 1778006451 | 28.33° C | 69% | 1001.3 hPa | 0 mm | - | 464 W/m² | - |
| 1778006148 | 27.78° C | 70% | 1001.2 hPa | 0 mm | - | 393 W/m² | - |
| 1778005846 | 27.78° C | 71% | 1001.1 hPa | 0 mm | - | 405 W/m² | - |
| 1778005541 | 27.78° C | 71% | 1001.1 hPa | 0 mm | - | 445 W/m² | - |
| 1778005238 | 27.22° C | 72% | 1001.2 hPa | 0 mm | - | 474 W/m² | - |
| 1778004935 | 27.78° C | 71% | 1001.2 hPa | 0 mm | - | 383 W/m² | - |
| 1778004633 | 27.78° C | 71% | 1001.3 hPa | 0 mm | - | 396 W/m² | - |
| 1778004328 | 27.78° C | 72% | 1001.3 hPa | 0 mm | - | 405 W/m² | - |
* Rain latest hour (hover to see other rain measurements)
** Current wind speed in m/s (hover to see current wind gust speed)